When you browse on this site, cookies collect data to enhance your experience and personalize the content and advertising you see.
Visit our Privacy Policy to learn more. By continuing to use the site, you agree to this use of cookies and data.
  • In Schweiz
  • Länderverzeichnis
  • Für 7 Tage
  • Wassertemperatur
  • Satellitenkarten
  • Wetterkarte
  • Widgets
  • user-avatar
    Anmelden

    Stündliche Wetter Sultanaevo

    Heute, 20 Februar, Mittwoch

    Zeit Temperatur Niederschläge Wind Luftdruck Luftfeuchtigkeit
    00:00 -21°C° 0 mm 3 m/S 748 mmHg 94%
    01:00 -19°C° 0 mm 2 m/S 748 mmHg 94%
    02:00 -20°C° 0 mm 2 m/S 748 mmHg 94%
    03:00 -20°C° 0 mm 2 m/S 748 mmHg 93%
    04:00 -19°C° 0 mm 1 m/S 749 mmHg 93%
    05:00 -19°C° 0 mm 1 m/S 749 mmHg 93%
    06:00 -19°C° 0 mm 1 m/S 749 mmHg 93%
    07:00 -20°C° 0 mm 1 m/S 750 mmHg 92%
    08:00 -18°C° 0 mm 1 m/S 750 mmHg 91%
    09:00 -17°C° 0 mm 1 m/S 750 mmHg 90%
    10:00 -18°C° 0 mm 2 m/S 750 mmHg 89%
    11:00 -17°C° 0 mm 2 m/S 750 mmHg 89%
    12:00 -16°C° 0 mm 3 m/S 750 mmHg 88%
    13:00 -15°C° 0 mm 3 m/S 750 mmHg 88%
    14:00 -15°C° 0 mm 3 m/S 750 mmHg 88%
    15:00 -15°C° 0 mm 4 m/S 750 mmHg 89%
    16:00 -15°C° 0 mm 4 m/S 749 mmHg 90%
    17:00 -15°C° 0 mm 5 m/S 749 mmHg 90%
    18:00 -15°C° 0 mm 5 m/S 749 mmHg 90%
    19:00 -16°C° 0 mm 6 m/S 749 mmHg 90%
    20:00 -16°C° 0 mm 6 m/S 749 mmHg 90%
    21:00 -15°C° 0 mm 6 m/S 748 mmHg 90%
    22:00 -15°C° 0 mm 6 m/S 748 mmHg 91%
    23:00 -14°C° 0 mm 6 m/S 748 mmHg 90%

    Morgen, 21 Februar, Donnerstag

    Zeit Temperatur Niederschläge Wind Luftdruck Luftfeuchtigkeit
    00:00 -14°C° 0 mm 6 m/S 748 mmHg 90%
    01:00 -12°C° 0 mm 6 m/S 747 mmHg 89%
    02:00 -12°C° 0.1 mm 6 m/S 747 mmHg 90%
    03:00 -11°C° 0.1 mm 6 m/S 747 mmHg 90%
    04:00 -10°C° 0.1 mm 6 m/S 747 mmHg 90%
    05:00 -10°C° 0.1 mm 6 m/S 747 mmHg 90%
    06:00 -11°C° 0.1 mm 7 m/S 747 mmHg 90%
    07:00 -11°C° 0.1 mm 7 m/S 747 mmHg 90%
    08:00 -9°C° 0 mm 7 m/S 747 mmHg 90%
    09:00 -9°C° 0 mm 7 m/S 747 mmHg 89%
    10:00 -9°C° 0 mm 7 m/S 747 mmHg 89%
    11:00 -8°C° 0.1 mm 7 m/S 747 mmHg 89%
    12:00 -8°C° 0.1 mm 7 m/S 747 mmHg 89%
    13:00 -7°C° 0.1 mm 7 m/S 747 mmHg 89%
    14:00 -7°C° 0.3 mm 7 m/S 747 mmHg 89%
    15:00 -7°C° 0.3 mm 7 m/S 747 mmHg 89%
    16:00 -7°C° 0.3 mm 8 m/S 748 mmHg 89%
    17:00 -7°C° 0.4 mm 7 m/S 748 mmHg 89%
    18:00 -8°C° 0.4 mm 7 m/S 748 mmHg 89%
    19:00 -8°C° 0.4 mm 7 m/S 748 mmHg 89%
    20:00 -7°C° 0.3 mm 7 m/S 748 mmHg 89%
    21:00 -7°C° 0.3 mm 7 m/S 748 mmHg 89%
    22:00 -6°C° 0.3 mm 7 m/S 748 mmHg 89%
    23:00 -6°C° 0.2 mm 7 m/S 748 mmHg 89%

    übermorgen, 22 Februar, Freitag

    Zeit Temperatur Niederschläge Wind Luftdruck Luftfeuchtigkeit
    00:00 -6°C° 0.2 mm 7 m/S 747 mmHg 89%
    01:00 -4°C° 0.2 mm 7 m/S 747 mmHg 88%
    02:00 -4°C° 0.1 mm 7 m/S 747 mmHg 88%
    03:00 -4°C° 0.1 mm 7 m/S 747 mmHg 88%
    04:00 -4°C° 0.1 mm 7 m/S 747 mmHg 88%
    05:00 -6°C° 0.1 mm 7 m/S 747 mmHg 89%
    06:00 -7°C° 0.1 mm 7 m/S 747 mmHg 90%
    07:00 -7°C° 0.1 mm 7 m/S 746 mmHg 90%
    08:00 -8°C° 0.3 mm 8 m/S 746 mmHg 90%
    09:00 -8°C° 0.3 mm 8 m/S 746 mmHg 90%
    10:00 -8°C° 0.3 mm 8 m/S 746 mmHg 90%
    11:00 -7°C° 0.2 mm 8 m/S 746 mmHg 90%
    12:00 -7°C° 0.2 mm 8 m/S 746 mmHg 89%
    13:00 -6°C° 0.2 mm 8 m/S 745 mmHg 88%
    14:00 -6°C° 0.4 mm 8 m/S 745 mmHg 88%
    15:00 -5°C° 0.4 mm 8 m/S 745 mmHg 89%
    16:00 -5°C° 0.4 mm 8 m/S 745 mmHg 89%
    17:00 -4°C° 0.3 mm 7 m/S 745 mmHg 89%
    18:00 -4°C° 0.3 mm 7 m/S 745 mmHg 89%
    19:00 -4°C° 0.3 mm 7 m/S 745 mmHg 89%
    20:00 -5°C° 0.1 mm 6 m/S 746 mmHg 87%
    21:00 -8°C° 0.1 mm 6 m/S 747 mmHg 85%
    22:00 -9°C° 0.1 mm 6 m/S 747 mmHg 83%
    23:00 -11°C° 0 mm 5 m/S 748 mmHg 85%

    23 Februar, Samstag

    Zeit Temperatur Niederschläge Wind Luftdruck Luftfeuchtigkeit
    00:00 -12°C° 0 mm 5 m/S 749 mmHg 87%
    01:00 -13°C° 0 mm 5 m/S 750 mmHg 89%
    02:00 -13°C° 0 mm 5 m/S 750 mmHg 89%
    03:00 -13°C° 0 mm 5 m/S 751 mmHg 89%
    04:00 -12°C° 0 mm 6 m/S 752 mmHg 89%
    05:00 -12°C° 0 mm 6 m/S 752 mmHg 89%
    06:00 -11°C° 0 mm 6 m/S 752 mmHg 89%
    07:00 -11°C° 0 mm 6 m/S 753 mmHg 89%
    08:00 -11°C° 0 mm 6 m/S 753 mmHg 88%
    09:00 -11°C° 0 mm 6 m/S 754 mmHg 87%
    10:00 -11°C° 0 mm 6 m/S 754 mmHg 87%
    11:00 -11°C° 0 mm 6 m/S 755 mmHg 86%
    12:00 -10°C° 0 mm 6 m/S 755 mmHg 85%
    13:00 -11°C° 0 mm 7 m/S 756 mmHg 84%
    14:00 -10°C° 0 mm 6 m/S 756 mmHg 84%
    15:00 -11°C° 0 mm 6 m/S 756 mmHg 84%
    16:00 -11°C° 0 mm 6 m/S 757 mmHg 85%
    17:00 -12°C° 0 mm 5 m/S 757 mmHg 86%
    18:00 -13°C° 0 mm 5 m/S 757 mmHg 88%
    19:00 -14°C° 0 mm 4 m/S 758 mmHg 89%
    20:00 -14°C° 0 mm 4 m/S 758 mmHg 90%
    21:00 -15°C° 0 mm 4 m/S 758 mmHg 90%
    22:00 -16°C° 0 mm 4 m/S 758 mmHg 91%
    23:00 -16°C° 0 mm 4 m/S 758 mmHg 92%

    24 Februar, Sonntag

    Zeit Temperatur Niederschläge Wind Luftdruck Luftfeuchtigkeit
    00:00 -17°C° 0 mm 4 m/S 759 mmHg 92%
    01:00 -17°C° 0 mm 4 m/S 759 mmHg 92%
    02:00 -17°C° 0 mm 4 m/S 759 mmHg 93%
    03:00 -17°C° 0 mm 4 m/S 759 mmHg 93%
    04:00 -17°C° 0 mm 4 m/S 759 mmHg 93%
    05:00 -17°C° 0 mm 4 m/S 760 mmHg 93%
    06:00 -16°C° 0 mm 4 m/S 760 mmHg 93%
    07:00 -16°C° 0 mm 4 m/S 760 mmHg 93%
    08:00 -15°C° 0 mm 4 m/S 760 mmHg 93%
    09:00 -14°C° 0 mm 4 m/S 760 mmHg 92%
    10:00 -12°C° 0 mm 4 m/S 761 mmHg 91%
    11:00 -11°C° 0 mm 4 m/S 761 mmHg 91%
    12:00 -11°C° 0 mm 4 m/S 761 mmHg 91%
    13:00 -10°C° 0 mm 4 m/S 761 mmHg 90%
    14:00 -9°C° 0 mm 3 m/S 760 mmHg 91%
    15:00 -9°C° 0 mm 3 m/S 760 mmHg 91%
    16:00 -9°C° 0 mm 3 m/S 760 mmHg 91%
    17:00 -10°C° 0 mm 3 m/S 760 mmHg 92%
    18:00 -12°C° 0 mm 3 m/S 760 mmHg 93%
    19:00 -13°C° 0 mm 3 m/S 760 mmHg 94%
    20:00 -14°C° 0 mm 3 m/S 760 mmHg 94%
    21:00 -15°C° 0 mm 3 m/S 760 mmHg 94%
    22:00 -16°C° 0 mm 3 m/S 760 mmHg 94%
    23:00 -17°C° 0 mm 3 m/S 759 mmHg 94%

    25 Februar, Montag

    Zeit Temperatur Niederschläge Wind Luftdruck Luftfeuchtigkeit
    00:00 -17°C° 0 mm 3 m/S 759 mmHg 95%
    01:00 -17°C° 0 mm 2 m/S 759 mmHg 95%
    02:00 -17°C° 0 mm 2 m/S 759 mmHg 95%
    03:00 -17°C° 0 mm 2 m/S 758 mmHg 95%
    04:00 -17°C° 0 mm 2 m/S 758 mmHg 96%
    05:00 -17°C° 0 mm 2 m/S 758 mmHg 96%
    06:00 -18°C° 0 mm 2 m/S 757 mmHg 96%
    07:00 -18°C° 0 mm 2 m/S 757 mmHg 97%
    08:00 -17°C° 0 mm 2 m/S 757 mmHg 96%
    09:00 -16°C° 0 mm 2 m/S 757 mmHg 95%
    10:00 -15°C° 0 mm 2 m/S 756 mmHg 95%
    11:00 -14°C° 0 mm 2 m/S 756 mmHg 94%
    12:00 -13°C° 0 mm 2 m/S 756 mmHg 92%
    13:00 -12°C° 0 mm 2 m/S 755 mmHg 91%
    14:00 -10°C° 0 mm 2 m/S 755 mmHg 92%
    15:00 -10°C° 0 mm 2 m/S 754 mmHg 92%
    16:00 -10°C° 0 mm 2 m/S 754 mmHg 92%
    17:00 -12°C° 0 mm 2 m/S 754 mmHg 93%
    18:00 -13°C° 0 mm 2 m/S 753 mmHg 93%
    19:00 -13°C° 0 mm 2 m/S 753 mmHg 94%
    20:00 -14°C° 0 mm 2 m/S 753 mmHg 94%
    21:00 -15°C° 0 mm 2 m/S 753 mmHg 94%
    22:00 -16°C° 0 mm 2 m/S 752 mmHg 94%
    23:00 -17°C° 0 mm 2 m/S 752 mmHg 93%
    Mehr zeigen